Wind_Speed
19 18 16 16 16 17 16 14 13 12 11 10 9 8 7 7 6 6 6 6 6 7 7 7 7 8 8 8 10 11 11 11 11 12 14 16 18 20 20 19 18 17 18 18 16 15 14 14 13 14 16 18 20 21 21 22 23 23 22 22 23 22 20 19 18 17 16 13 9 5 4 7 9 8 7 6 6 8 7 6 6 5 5 5 5 5 3 2
20 20 19 17 17 17 18 17 16 14 13 12 11 10 9 9 8 7 7 7 7 7 7 7 7 7 8 8 8 10 10 9 10 11 13 16 20 21 19 17 16 17 17 18 17 15 14 14 13 14 16 18 21 22 23 24 25 26 25 23 24 23 21 20 19 19 17 16 13 9 8 8 6 5 6 3 4 8 7 5 4 3 4 3 3 4 3 1
20 20 20 20 18 17 18 19 18 17 16 14 13 12 11 11 10 9 8 8 8 8 8 8 7 7 8 8 8 8 8 8 9 10 13 17 20 20 18 17 17 17 17 18 17 15 15 14 14 14 15 18 21 24 25 25 26 27 26 25 24 22 21 21 20 19 18 17 15 13 12 11 9 8 8 6 5 8 8 5 4 3 3 2 2 1 2 2
20 20 20 21 20 19 18 19 20 19 18 17 15 14 13 13 12 11 10 9 9 9 9 8 8 8 8 8 8 7 7 8 8 9 12 16 20 20 19 20 20 19 18 18 17 15 15 14 14 13 13 16 20 24 27 27 28 28 27 26 24 22 21 20 19 18 18 17 15 14 13 12 11 10 10 9 7 6 7 7 6 5 4 3 2 3 2 2
20 20 20 21 21 21 20 19 20 20 20 19 18 16 15 14 14 13 12 11 10 10 10 9 9 9 8 8 8 7 8 7 7 8 10 14 20 21 21 23 23 21 19 18 17 15 14 14 14 13 13 16 19 23 27 28 29 29 28 27 24 23 21 19 18 18 16 16 15 15 14 13 13 11 10 10 8 6 5 6 6 5 5 4 4 4 3 2
21 20 20 20 21 22 22 21 20 21 21 21 20 19 17 16 15 14 14 12 11 11 11 10 10 10 9 9 8 8 8 8 7 8 9 13 20 22 23 25 24 22 20 19 18 15 15 15 15 14 14 16 19 23 26 28 30 31 30 28 25 23 21 19 18 18 16 15 15 14 14 13 13 12 11 10 8 7 6 5 5 4 4 3 3 3 3 3
21 21 20 20 20 21 22 22 22 21 21 22 22 21 20 18 17 16 15 14 13 12 12 11 11 11 10 9 9 9 9 9 8 8 8 10 19 23 23 24 24 22 20 20 20 17 16 16 16 16 16 18 20 23 26 28 30 31 32 30 27 24 22 20 19 18 17 16 15 14 13 13 13 12 10 9 8 8 7 7 5 5 4 3 3 3 3 3
20 20 21 20 20 21 21 22 23 23 22 22 23 23 22 21 19 18 16 16 15 14 13 12 12 11 11 10 10 10 11 9 8 8 8 8 14 22 23 22 22 21 20 21 21 19 17 17 18 17 18 20 22 24 25 27 30 32 32 31 29 26 23 21 20 19 18 17 16 14 13 13 12 11 9 8 8 8 8 8 7 6 6 5 4 4 4 5
18 19 20 20 20 20 21 22 23 24 24 23 23 24 24 23 22 20 18 17 16 16 15 14 13 12 12 11 11 11 11 9 9 9 9 8 10 18 21 20 20 19 20 21 22 20 18 17 18 18 19 21 23 25 25 26 29 31 32 31 29 28 25 23 21 20 19 18 17 15 13 10 10 10 9 9 9 8 7 7 7 6 6 5 5 5 6 5
17 17 18 19 19 20 20 21 22 23 24 25 24 24 24 25 24 22 20 19 17 17 16 16 14 13 13 12 12 12 11 10 9 9 9 9 7 11 17 17 18 19 20 22 22 21 19 18 19 19 20 22 24 25 25 26 28 30 31 30 30 29 27 25 23 20 19 18 18 17 15 11 8 9 10 10 10 8 7 7 6 5 5 5 4 4 4 5
16 16 16 17 18 19 20 20 21 22 24 25 26 25 24 25 26 25 23 21 19 18 17 17 16 14 13 13 13 12 12 11 9 9 9 8 7 7 12 15 17 19 21 22 22 22 20 18 19 20 20 21 23 24 25 26 26 27 29 29 29 29 28 27 25 21 19 18 17 18 19 15 12 10 10 11 10 9 7 6 5 4 3 3 3 3 3 3
15 14 14 14 15 16 18 19 21 22 23 24 25 26 26 25 26 27 25 23 21 19 18 18 17 16 15 14 14 13 12 11 9 9 9 9 8 7 9 12 15 18 19 21 22 21 20 18 18 20 20 21 23 23 24 25 25 25 26 27 28 28 27 27 26 23 20 18 18 18 19 19 16 13 12 12 11 9 8 6 5 4 4 4 4 4 4 5
14 14 13 13 13 14 15 17 19 21 23 23 24 26 27 26 26 27 27 26 24 21 19 18 18 18 17 16 15 13 12 12 11 10 11 11 10 8 8 9 11 14 16 18 20 19 18 18 18 19 19 21 22 22 23 23 23 24 24 25 27 27 27 26 25 24 21 19 19 19 19 19 18 16 14 12 11 10 9 7 6 5 5 5 5 5 5 6
13 13 13 12 12 13 13 15 17 19 21 22 23 24 26 27 28 27 28 28 26 24 21 20 19 18 18 17 14 13 14 14 14 13 13 13 12 10 9 8 9 11 12 15 17 17 17 17 17 17 17 19 20 21 22 22 22 22 22 23 25 26 26 25 25 24 23 20 19 19 19 18 17 16 14 13 11 9 8 7 6 6 6 6 7 7 6 6
12 13 13 12 12 12 12 14 15 16 18 20 22 23 25 27 28 28 28 28 28 27 24 22 20 19 19 17 15 15 16 17 18 17 14 14 14 12 10 9 9 10 10 12 15 15 16 15 14 14 15 17 18 19 20 20 21 21 21 21 23 25 25 24 23 23 23 20 19 18 18 17 16 15 14 12 11 9 7 7 6 7 8 8 8 8 7 6
11 12 13 12 12 12 12 13 14 15 16 17 19 21 23 25 27 29 29 28 28 28 27 24 22 20 19 17 17 18 19 19 20 17 14 14 14 12 12 11 10 9 10 11 13 14 14 13 12 12 13 16 17 18 19 19 20 20 20 21 22 23 24 24 22 22 22 20 19 18 17 16 15 15 14 12 10 8 7 7 7 7 7 8 8 8 7 7
11 12 12 12 12 12 12 12 13 13 14 16 18 19 21 23 26 28 29 29 29 29 29 27 24 22 20 19 20 21 22 21 19 16 15 14 13 12 13 12 10 9 10 11 13 14 14 14 13 12 12 14 16 17 17 18 19 19 20 21 21 22 22 23 22 20 20 19 18 17 16 15 15 14 14 12 10 8 7 7 7 7 7 7 7 7 6 7
10 12 12 13 12 12 12 12 11 11 13 15 17 19 20 22 24 26 29 30 30 29 30 29 27 24 22 21 22 23 23 21 17 16 16 14 13 13 13 12 10 10 11 11 13 15 15 15 15 13 11 12 14 15 15 15 17 18 19 20 20 20 20 21 21 19 19 18 16 15 14 14 14 14 14 12 11 9 9 8 8 8 7 7 7 7 6 6
10 12 12 13 12 11 11 11 10 10 11 13 16 18 20 22 24 25 28 30 31 30 30 30 29 27 24 23 22 22 22 20 17 16 16 14 13 14 13 11 10 10 11 12 14 16 16 16 15 13 11 10 11 12 13 13 15 16 16 18 18 19 19 20 19 18 18 17 15 12 12 13 14 14 14 13 12 11 10 10 10 9 9 8 8 8 7 7
10 12 13 13 12 11 11 11 9 8 9 12 15 18 21 22 24 26 28 30 31 31 30 30 30 29 26 24 22 21 22 21 19 18 17 15 14 14 13 12 11 10 11 13 15 17 17 16 15 13 11 10 10 10 10 10 12 13 13 14 15 17 19 19 19 18 18 17 13 9 10 13 14 14 14 14 13 13 12 11 11 11 11 10 9 8 8 8
10 12 13 12 11 11 12 10 8 7 8 10 13 17 20 23 25 26 28 29 31 32 31 30 30 30 28 25 23 22 22 21 20 19 18 15 15 15 13 12 11 10 11 13 16 18 17 16 15 13 11 11 10 9 9 9 9 10 10 11 12 16 18 18 18 18 17 15 11 8 11 13 13 14 15 15 15 14 13 12 12 12 11 11 9 8 9 9
11 11 12 11 11 12 12 9 7 6 7 9 11 14 18 22 24 26 27 28 30 32 32 30 29 30 29 26 23 22 21 21 21 19 17 15 14 14 14 12 12 12 12 13 17 19 18 17 16 14 11 10 9 8 8 8 7 6 7 9 9 14 18 18 17 17 16 13 10 9 12 12 12 14 15 16 16 15 14 13 12 12 11 11 9 8 9 10
10 10 10 11 12 13 11 9 6 6 7 9 11 12 15 19 23 27 27 27 29 32 33 31 29 30 30 28 25 23 22 22 21 20 18 15 14 15 15 14 14 13 11 13 17 20 21 19 17 15 12 9 7 6 6 6 5 3 4 6 7 13 18 18 16 15 15 12 9 10 12 12 11 12 13 15 15 15 14 14 13 12 12 11 10 9 9 10
9 8 9 12 14 13 11 8 6 6 7 8 10 11 14 17 21 25 26 26 28 31 32 32 30 29 30 29 27 25 24 23 23 21 20 18 16 16 16 16 15 12 11 15 18 20 21 20 18 16 14 10 7 6 5 3 3 2 2 3 5 12 18 17 14 13 13 11 8 9 11 10 10 10 12 12 12 13 13 13 13 12 12 11 10 9 9 10
8 6 9 13 13 12 10 8 7 6 7 8 10 11 12 14 17 21 24 24 26 29 31 31 29 28 29 30 29 27 25 23 24 23 22 21 19 18 18 17 15 12 12 16 19 19 20 19 17 17 15 12 9 8 7 6 4 3 1 1 2 10 17 15 12 11 11 11 10 10 10 8 7 11 14 11 10 11 12 12 13 12 11 12 11 10 9 10
8 6 10 13 12 11 9 8 7 7 7 8 10 11 10 11 13 17 20 22 24 28 29 30 29 27 27 29 30 28 26 25 24 23 23 23 21 20 19 17 15 14 14 17 19 19 18 16 15 16 15 13 12 9 8 8 5 4 3 0 0 8 15 12 10 9 9 11 12 12 10 7 6 11 14 11 10 10 10 12 13 12 12 12 12 12 11 11
9 6 9 12 12 10 8 7 7 7 7 7 9 9 8 9 10 13 17 19 22 25 27 28 28 27 26 28 30 29 27 27 26 25 25 23 22 21 19 18 17 16 16 18 19 19 17 15 15 17 17 15 14 11 9 9 6 4 3 1 1 6 13 10 8 8 8 10 12 12 11 8 7 10 12 11 11 10 9 11 13 12 12 12 12 13 12 12
9 5 8 13 12 9 7 6 6 6 6 6 7 7 6 6 8 11 14 17 19 22 24 25 26 26 26 27 29 30 30 28 27 27 27 24 22 21 20 19 19 18 17 17 20 19 16 16 16 18 19 16 14 13 12 11 7 4 3 2 2 5 9 7 5 5 7 10 11 12 12 10 8 10 11 11 11 10 9 12 12 12 12 12 13 13 13 13
8 3 8 12 11 8 7 6 5 5 5 5 5 4 4 6 8 10 13 16 18 20 22 23 25 26 25 26 29 31 31 30 29 28 28 26 23 22 22 22 21 20 17 15 19 19 16 17 18 19 20 17 15 16 15 13 8 4 4 4 2 2 4 4 3 4 5 9 10 10 11 11 8 8 10 10 10 9 8 11 12 12 12 12 13 13 14 14
7 0 8 12 10 8 7 6 5 4 4 4 3 2 5 9 12 14 16 18 18 20 22 21 22 24 25 26 27 30 32 31 30 28 28 26 24 23 24 24 22 20 17 16 18 18 16 16 17 19 19 16 16 17 17 15 10 7 8 8 5 3 2 1 3 3 4 7 9 8 8 9 8 9 10 9 8 7 7 10 12 13 12 12 13 14 15 15
6 2 8 10 10 8 7 6 5 5 4 4 3 5 9 12 15 17 18 19 18 19 22 22 22 23 24 25 25 27 30 31 30 29 28 26 25 24 24 24 22 19 17 17 18 17 15 14 16 18 18 16 17 18 18 17 13 10 11 10 7 5 5 3 4 4 5 5 7 7 7 8 9 10 10 9 7 7 7 9 11 12 11 11 13 15 15 16
6 3 6 8 8 8 8 6 6 6 5 6 7 9 12 15 15 17 18 18 17 18 20 22 22 23 24 24 23 23 26 28 29 29 27 26 26 25 24 23 22 20 19 18 19 18 15 13 15 17 16 16 17 17 17 17 15 12 11 9 6 5 5 3 4 5 5 4 7 9 9 9 10 10 10 10 9 8 8 9 10 11 11 12 14 15 15 16
5 3 3 6 7 8 8 7 7 7 8 9 11 12 14 16 15 16 17 17 17 17 18 20 21 22 22 22 22 21 22 25 27 28 28 27 26 26 26 25 23 21 20 20 21 20 16 14 15 16 17 16 15 16 17 16 15 12 11 9 7 7 6 2 4 6 5 5 8 11 10 8 10 11 10 11 10 9 10 11 11 12 13 14 15 15 15 16
4 2 2 4 6 7 8 8 9 10 11 12 13 13 15 16 15 16 16 15 16 15 16 18 19 20 21 21 21 20 20 21 24 26 27 28 27 27 27 27 25 23 21 22 23 21 18 16 16 17 18 15 13 16 18 19 17 15 14 11 7 7 6 3 4 6 5 6 8 11 8 6 10 11 10 9 9 10 12 13 12 13 14 14 14 15 15 16
4 2 1 3 6 7 8 10 11 13 14 14 15 15 15 16 15 16 14 14 14 13 13 15 16 18 19 18 19 20 19 18 19 21 24 26 27 27 27 27 26 25 23 23 24 22 20 18 17 17 17 15 16 17 18 19 18 18 16 10 4 5 6 4 5 7 5 5 7 9 6 3 7 11 9 8 9 10 13 13 12 13 14 12 13 15 16 17
3 2 0 2 5 7 9 11 13 15 16 15 15 15 15 16 16 15 14 13 14 13 12 13 15 17 17 17 16 17 17 16 17 18 19 22 25 27 27 27 27 26 25 24 24 23 21 18 18 18 16 17 20 19 18 19 18 18 13 7 7 9 8 7 7 8 4 3 4 6 5 3 5 10 9 8 7 9 12 13 12 13 12 11 13 16 18 19
2 2 1 2 5 8 11 13 14 16 16 15 14 14 14 16 16 15 14 15 15 14 13 14 16 18 19 19 17 16 18 16 15 17 17 17 20 22 25 26 26 26 26 26 26 25 22 20 20 20 18 20 22 21 20 19 19 18 13 10 12 12 10 8 8 9 6 3 1 2 4 4 6 9 10 8 7 8 11 12 12 12 11 10 13 18 20 21
3 2 1 1 4 8 12 14 15 16 15 15 14 13 13 14 15 14 14 16 16 16 16 16 17 18 20 21 20 18 19 17 15 16 16 15 15 17 20 22 24 25 26 27 28 27 25 23 23 22 21 22 23 21 21 21 21 21 17 15 15 13 12 9 9 10 7 3 2 3 4 5 7 10 10 9 9 8 10 11 11 12 11 10 13 18 20 20
3 2 2 0 3 7 11 14 15 15 15 15 15 13 12 11 11 12 13 16 16 16 17 17 16 18 19 20 20 18 18 18 17 15 14 13 14 15 17 18 19 21 24 26 27 28 27 26 26 25 24 24 23 22 23 24 24 23 20 19 18 16 15 13 11 11 7 3 5 6 5 6 7 9 9 8 10 10 11 12 12 12 13 12 13 16 18 19
2 2 2 1 2 5 9 11 13 14 14 15 15 13 12 10 9 10 12 15 17 17 17 17 17 17 18 18 18 17 17 17 17 16 15 15 15 16 18 19 18 19 20 23 25 27 28 28 27 26 26 25 24 25 26 26 24 22 21 20 20 19 17 15 13 11 7 5 7 8 7 6 6 7 8 9 10 11 13 14 13 12 13 14 13 14 15 18
3 2 2 1 2 3 5 7 10 12 13 14 14 13 11 11 10 10 10 13 15 17 17 17 18 17 17 18 18 18 17 16 17 18 18 18 18 18 19 21 20 20 20 20 22 24 27 28 27 27 27 26 26 27 28 27 24 21 18 18 19 21 20 18 16 14 10 8 9 11 10 8 7 7 8 10 12 12 13 15 15 14 14 13 11 11 14 17
5 3 3 2 2 1 1 4 7 10 11 13 14 13 11 11 11 10 10 11 13 16 17 17 17 17 18 20 20 19 18 17 18 20 21 21 21 20 19 18 19 21 21 20 20 21 24 27 28 27 27 27 28 29 29 27 25 21 18 17 19 22 23 22 19 16 14 12 13 14 12 9 8 7 7 11 13 14 15 17 18 18 17 13 10 10 13 16
7 5 4 4 3 2 2 3 6 8 9 11 13 13 11 11 12 12 11 10 12 15 16 15 16 17 18 20 20 19 19 19 20 22 22 22 21 19 17 16 18 19 20 21 21 20 23 26 28 28 28 28 30 29 28 27 25 22 20 19 20 21 23 22 20 17 17 16 15 15 13 10 9 8 9 12 14 15 18 20 20 19 18 13 9 10 14 15
8 6 6 5 4 4 4 4 5 6 8 9 10 12 12 12 14 14 12 11 12 15 16 16 16 16 17 18 18 17 17 19 21 22 22 21 19 19 17 16 17 17 17 18 18 19 22 25 27 29 29 29 30 28 27 27 26 25 23 22 22 23 23 23 22 21 20 18 16 15 13 10 8 9 11 13 15 16 19 20 20 18 15 12 9 11 13 15
10 9 7 7 6 6 6 6 6 6 7 8 9 11 12 12 14 16 15 13 13 15 17 18 18 17 16 16 17 17 16 17 18 19 20 19 17 19 18 15 15 15 16 17 16 17 20 22 27 29 28 29 30 27 26 27 28 27 25 24 24 24 24 23 23 24 22 19 17 16 14 11 10 12 14 15 15 16 17 18 19 16 12 9 9 11 13 14
12 11 9 8 8 8 8 8 8 8 7 8 10 12 12 13 14 16 17 16 14 15 17 19 20 18 16 15 15 16 17 16 16 16 18 17 15 17 18 13 11 15 17 18 17 17 17 20 25 28 28 29 30 28 26 28 29 29 26 24 23 24 25 24 23 24 24 22 20 18 16 15 14 14 14 15 15 15 15 17 17 13 10 10 12 13 14 15
14 13 11 10 9 9 9 9 9 9 9 9 11 12 12 13 14 15 16 15 15 14 16 19 21 19 17 16 15 16 17 16 15 15 17 16 14 16 17 13 12 16 20 19 19 19 17 17 23 26 27 29 30 29 28 28 29 28 25 23 22 24 25 24 23 24 25 26 23 19 18 17 15 15 14 14 15 14 15 17 15 11 12 15 17 16 15 15
15 14 13 12 11 10 10 10 10 10 10 10 11 12 12 13 14 15 15 14 14 14 15 18 21 20 18 17 15 15 16 16 16 15 15 15 15 15 15 13 13 16 19 19 19 20 18 15 19 25 27 28 30 30 30 30 29 26 24 23 22 23 24 24 24 25 26 27 24 20 19 17 15 15 15 16 16 15 16 17 14 13 15 18 19 17 15 16
16 15 14 13 12 12 11 11 11 12 12 11 11 12 13 14 14 15 16 15 15 15 15 18 22 22 21 19 17 16 15 15 16 16 14 13 15 16 15 13 14 15 17 17 16 17 17 14 15 21 24 27 29 31 31 31 29 26 25 24 24 24 24 23 23 24 26 27 25 23 22 19 17 17 17 17 17 17 16 15 15 17 18 19 20 18 17 19
17 17 16 15 14 13 13 12 12 13 13 12 12 12 12 12 13 14 16 17 17 17 17 18 21 24 24 22 20 18 17 16 15 16 14 13 15 17 16 14 16 17 17 16 14 15 16 14 14 16 19 23 29 31 33 32 30 28 27 27 26 25 24 24 24 23 23 24 24 24 23 20 18 18 18 17 18 18 16 16 17 19 19 18 19 19 19 20
18 18 17 16 16 15 14 14 14 14 14 13 13 13 12 12 11 12 14 16 18 19 19 18 19 22 25 25 24 22 20 19 16 16 15 15 15 18 18 17 17 17 17 17 16 16 16 14 14 16 17 21 26 31 33 33 31 29 29 28 27 27 26 26 25 22 21 21 21 21 20 19 18 19 19 19 19 18 17 17 18 18 17 17 17 17 17 18
18 18 18 18 17 16 16 16 16 16 16 15 14 14 14 14 13 12 13 14 15 18 19 18 18 19 23 26 27 26 24 22 19 17 16 17 18 19 20 19 19 18 18 18 17 17 17 15 14 14 16 20 24 28 32 34 32 29 28 27 27 28 28 27 25 22 21 21 21 20 19 18 18 19 20 20 20 20 19 20 19 18 17 17 17 16 14 14
Wind_Direction
237 234 232 231 230 229 229 230 230 230 227 221 217 214 216 218 208 188 184 184 178 177 180 183 176 169 167 160 148 144 150 147 139 133 126 121 119 119 114 106 102 97 91 84 73 66 64 64 63 64 67 68 64 61 61 61 61 60 58 60 62 62 62 63 63 59 60 69 84 103 120 136 143 157 174 189 194 193 192 185 179 157 150 160 164 173 184 175
238 236 233 231 230 229 228 228 229 230 229 226 222 219 217 218 219 207 193 189 188 186 188 192 188 180 174 170 160 150 154 151 142 134 125 122 122 123 120 116 114 108 98 87 76 65 60 58 57 60 63 66 65 62 60 59 59 57 56 59 62 62 62 62 64 65 62 64 73 84 89 97 111 140 146 149 175 181 180 179 188 172 157 163 168 170 168 174
239 237 235 232 230 228 228 228 227 228 229 228 225 222 221 219 220 219 207 196 194 196 196 195 195 193 183 177 172 158 157 154 145 134 126 122 121 125 127 124 122 116 104 91 79 66 58 52 50 54 61 65 65 63 60 59 58 57 55 57 61 62 63 63 63 67 68 68 70 75 77 79 87 98 102 102 143 171 178 183 199 204 187 175 177 184 170 177
240 238 237 235 232 229 228 228 227 227 228 229 227 224 223 222 221 222 218 207 200 202 203 200 200 201 193 184 180 168 161 158 149 137 130 121 117 123 126 124 123 117 107 94 83 71 62 53 47 49 58 65 66 64 61 59 58 57 55 55 58 60 61 63 64 66 70 74 76 79 81 84 89 90 90 90 105 141 170 191 207 218 224 225 243 257 247 231
243 240 238 236 234 231 229 228 227 227 227 228 228 226 224 224 223 222 223 218 208 206 207 206 203 204 202 190 185 181 169 163 155 141 134 121 116 121 123 122 121 117 109 99 89 80 72 61 55 54 59 66 67 65 62 60 58 56 53 52 54 56 58 60 62 65 68 73 77 81 84 87 91 93 94 93 95 110 143 179 194 205 225 241 260 272 271 274
245 243 240 237 236 234 231 229 227 227 227 227 228 228 226 225 224 223 223 223 219 212 209 210 208 208 208 198 189 189 180 170 163 150 144 127 120 123 123 122 121 117 112 104 97 91 83 75 68 63 63 67 67 67 65 62 59 56 52 48 48 51 53 55 57 60 64 69 73 76 78 80 85 89 91 93 97 105 121 144 156 168 195 222 248 275 292 300
244 244 243 240 238 236 234 232 229 227 227 227 227 228 228 226 225 224 223 224 224 220 213 211 211 211 211 206 193 191 193 181 168 160 158 140 128 127 125 124 123 120 115 108 103 97 91 85 78 70 67 68 68 68 67 65 61 57 52 47 46 49 50 50 52 55 57 61 67 72 75 74 74 77 79 82 90 102 111 115 119 131 144 165 197 216 239 257
241 242 243 243 240 238 236 234 232 229 227 227 227 227 228 228 226 224 224 223 224 225 221 214 213 214 213 211 199 196 203 191 174 169 171 164 139 132 130 128 128 124 119 112 108 102 96 91 84 78 74 71 70 68 67 67 63 57 54 50 47 49 49 48 47 50 52 53 56 61 69 76 77 75 72 69 75 94 105 109 114 124 133 147 170 187 206 222
239 239 240 241 242 241 238 236 235 232 229 227 227 227 228 228 228 225 224 224 224 226 226 221 216 215 216 215 206 202 208 199 181 178 181 187 161 139 135 133 133 130 123 118 114 109 102 96 91 85 81 76 71 69 68 67 65 60 56 52 50 49 48 46 44 46 48 49 51 52 55 68 82 82 80 72 67 74 85 91 97 109 125 138 151 167 186 200
237 237 237 237 240 242 241 239 237 235 232 229 227 227 227 228 229 227 224 223 224 225 226 226 221 216 217 217 214 209 209 206 189 184 189 198 190 151 141 140 140 137 129 124 121 115 107 100 97 92 86 79 72 70 69 67 66 63 58 54 51 49 47 45 42 42 45 48 51 51 50 58 82 85 83 82 74 71 73 73 80 97 114 124 128 141 165 178
235 236 236 235 236 239 241 241 239 237 235 232 229 227 226 227 229 228 226 224 223 224 224 227 225 220 218 218 219 213 209 211 196 185 193 203 206 169 149 145 144 143 137 129 124 118 112 105 100 94 88 82 76 72 71 68 65 64 60 55 52 49 47 45 42 41 43 47 49 48 47 57 79 84 74 72 71 72 74 72 72 81 91 94 87 81 104 127
232 233 233 233 233 236 239 241 241 240 237 234 232 229 227 226 228 228 227 225 223 223 223 225 226 223 220 218 220 215 208 210 199 185 190 199 207 195 167 152 146 147 145 136 127 119 114 109 100 95 90 85 80 75 73 71 66 64 62 57 52 47 45 44 42 40 41 45 46 45 46 53 67 72 63 56 56 58 58 56 55 61 71 72 66 65 76 82
229 230 232 233 234 235 238 240 240 240 239 237 235 232 229 227 227 227 227 226 224 222 223 223 224 224 221 220 221 217 207 205 201 189 188 193 203 209 190 168 157 152 150 145 135 123 114 108 103 102 98 92 87 82 79 75 68 64 62 58 52 46 42 42 41 39 38 42 46 46 46 49 55 59 58 53 51 50 49 44 38 42 56 62 58 59 65 62
228 229 231 233 235 237 240 242 240 239 239 238 237 235 232 229 227 226 226 226 225 222 222 221 223 223 222 221 220 216 208 203 202 197 192 191 196 204 198 186 175 162 154 149 142 133 121 112 107 107 107 101 95 89 85 81 73 67 61 56 52 47 42 39 39 38 35 37 43 46 46 46 49 52 53 54 53 53 53 48 37 31 34 38 38 41 47 50
228 228 230 232 235 239 243 246 244 240 238 237 237 236 234 232 228 226 226 226 225 223 221 221 221 222 222 219 216 216 213 206 206 205 200 196 194 196 199 194 185 173 161 149 143 141 134 124 114 109 110 106 99 92 89 85 81 75 67 59 53 49 43 38 36 36 33 29 33 40 43 45 46 48 47 47 49 51 52 48 36 26 24 27 30 32 35 41
230 227 228 231 235 238 243 248 248 245 241 238 236 236 235 234 231 227 225 225 225 223 221 220 219 220 219 216 215 217 217 213 212 211 206 203 196 193 197 197 193 182 165 154 148 144 141 136 127 120 116 110 102 95 91 87 82 80 76 66 57 50 45 39 34 34 31 24 23 31 39 43 45 45 43 41 41 41 41 38 32 24 19 22 27 29 29 31
233 228 228 230 234 238 245 251 252 248 245 242 239 237 235 234 232 229 226 224 224 223 221 219 217 218 216 214 216 218 221 220 216 213 210 207 200 196 198 199 200 190 173 165 154 145 142 139 137 135 125 113 106 99 95 91 85 81 78 69 60 53 47 40 34 32 29 22 18 23 34 40 40 39 38 38 37 35 31 30 31 26 20 21 24 25 22 22
239 232 230 231 233 239 249 252 250 247 245 244 243 240 236 234 232 229 226 224 223 222 221 219 217 216 214 214 216 220 224 224 217 214 216 212 202 200 200 198 202 196 182 171 158 148 144 143 141 136 132 124 112 101 95 92 87 81 76 68 61 54 50 42 33 27 24 20 16 18 29 35 34 31 29 31 32 29 23 20 26 27 25 24 22 23 24 21
245 236 232 231 232 240 249 248 246 248 248 247 246 244 239 235 232 229 226 224 222 221 221 218 216 216 215 214 217 222 226 225 217 211 214 212 202 201 201 197 203 201 184 172 164 155 149 149 144 138 143 141 119 102 94 93 91 84 76 69 63 55 50 44 35 23 16 15 14 13 24 32 33 31 26 24 25 23 18 14 18 21 22 22 21 23 25 19
251 239 233 231 231 238 243 242 245 254 257 254 251 247 242 237 233 230 226 223 221 220 220 217 216 215 214 214 215 219 223 223 217 210 209 208 201 203 202 196 203 204 186 173 168 163 157 156 150 147 152 145 126 109 97 95 93 84 73 67 66 61 50 44 36 20 8 9 13 14 22 27 32 34 28 21 18 15 14 13 14 17 20 21 22 25 24 19
258 242 234 228 227 233 236 237 244 259 270 271 262 252 244 238 234 231 227 223 220 219 218 216 215 214 213 213 213 216 220 222 219 212 209 208 204 203 202 198 201 203 193 178 171 170 164 160 158 157 157 147 134 120 104 99 91 79 70 63 66 65 55 45 36 19 6 11 19 22 22 22 28 32 28 21 15 12 13 14 12 13 18 19 20 22 19 16
267 248 234 225 222 229 231 229 240 265 287 292 280 260 247 239 234 231 228 224 220 218 217 215 214 213 212 212 211 214 218 220 220 213 207 209 209 203 199 199 196 198 200 183 174 175 167 164 169 165 158 150 140 131 118 108 95 76 68 63 63 68 60 47 35 20 12 24 39 33 23 21 27 31 28 21 12 8 10 11 8 8 11 10 10 10 7 6
279 256 235 220 220 225 225 223 239 270 295 303 294 271 251 240 234 230 227 223 219 217 216 214 212 211 210 209 209 211 213 216 218 212 203 201 204 203 199 197 195 197 200 182 176 177 170 171 176 167 160 156 156 157 128 107 115 103 74 70 65 71 65 47 36 28 23 35 50 37 23 17 23 29 25 18 9 5 5 3 3 6 7 5 4 1 356 354
294 266 232 218 218 221 219 221 238 266 290 303 301 280 256 243 234 229 226 221 218 216 214 213 212 210 208 207 207 208 209 212 215 211 201 195 196 202 201 198 199 199 193 183 184 183 177 180 180 173 171 165 176 183 145 128 163 146 66 65 67 74 70 51 38 35 27 28 27 18 14 13 19 20 13 13 12 7 3 359 357 4 9 8 7 0 352 346
308 267 227 215 214 216 216 221 236 256 279 296 302 290 266 247 236 229 225 220 216 213 212 211 211 210 208 207 207 207 208 211 215 212 204 195 190 196 201 200 200 198 189 185 189 188 187 190 185 179 177 170 187 199 168 177 198 175 149 69 66 79 75 56 38 34 26 24 18 11 9 8 15 12 7 16 25 16 6 360 355 359 6 5 4 1 355 351
313 268 224 210 208 211 214 221 235 251 271 290 305 301 275 249 234 226 220 216 212 210 208 207 208 208 206 207 207 206 207 209 213 214 210 203 192 193 199 197 196 195 190 188 191 194 195 195 182 174 175 177 197 209 188 191 206 199 190 254 22 90 79 60 39 34 28 26 25 22 13 359 356 0 6 20 32 27 14 3 353 351 358 359 358 358 357 355
318 280 223 203 201 205 210 221 233 248 268 287 307 303 274 246 227 216 211 208 207 205 203 204 205 205 204 205 205 205 206 207 210 212 213 209 199 196 199 197 196 194 193 193 194 198 200 194 178 172 177 187 204 213 206 202 202 202 198 255 221 105 82 61 41 42 42 35 27 24 16 359 335 342 2 17 25 30 23 10 357 349 354 356 356 359 358 356
325 288 211 195 194 198 204 217 229 246 265 282 302 301 265 228 204 197 197 196 197 198 197 198 200 202 204 203 203 204 205 207 209 209 212 211 203 199 198 198 200 197 196 195 195 199 201 193 182 178 184 198 214 217 219 219 202 184 192 207 195 111 85 66 47 44 55 49 33 25 21 10 343 340 360 10 15 22 21 17 6 354 354 353 354 358 357 354
340 284 192 185 186 190 200 213 226 245 262 274 295 295 225 189 170 171 176 177 182 188 191 193 196 199 201 202 203 205 206 207 208 209 211 211 204 200 199 201 203 200 198 195 194 198 202 197 189 187 195 209 220 220 224 226 209 185 205 220 225 102 88 73 52 33 51 57 44 30 22 17 7 360 1 358 5 11 11 17 9 355 351 348 348 353 352 350
1 142 172 177 182 189 201 213 225 242 252 261 273 208 174 163 154 156 164 167 170 179 183 185 192 196 199 202 203 205 207 208 209 210 212 211 205 201 203 207 208 202 199 197 198 200 202 201 196 195 205 217 222 221 223 227 222 209 220 240 269 287 268 11 30 8 26 54 54 34 12 10 9 1 353 349 0 7 5 13 5 351 348 346 349 352 351 349
21 98 161 175 184 191 204 215 222 229 229 220 190 165 160 158 160 160 162 165 168 176 181 181 186 192 196 201 203 205 208 210 211 211 213 213 209 207 206 210 211 204 200 201 204 206 202 200 199 201 210 220 223 222 222 229 233 224 226 245 268 274 266 313 2 349 354 34 59 38 357 358 6 356 349 351 4 11 9 9 0 351 348 348 353 356 354 353
31 86 159 180 189 197 207 214 214 210 202 187 172 165 160 160 166 166 164 167 166 171 181 184 186 188 192 197 201 205 208 211 213 213 214 214 213 212 211 213 212 206 202 203 207 211 205 196 197 201 211 218 223 225 225 232 239 234 235 250 267 273 267 304 344 344 359 28 48 30 353 351 7 357 352 358 6 15 12 5 0 355 348 346 352 357 358 358
29 72 158 188 198 205 209 209 203 195 189 181 173 170 165 161 165 168 166 166 164 169 182 188 188 188 190 194 198 201 206 210 213 214 215 215 214 215 214 214 213 207 203 204 211 214 206 195 193 198 209 217 225 229 228 232 237 237 243 254 264 266 255 266 321 334 14 37 30 17 357 360 14 5 0 2 5 15 11 1 356 352 346 345 353 359 0 359
23 49 162 192 202 207 207 202 194 188 185 181 175 171 168 165 167 170 168 166 166 171 184 189 189 188 188 191 194 197 201 206 211 214 216 217 217 217 218 218 216 212 206 207 214 215 207 199 193 197 206 214 227 231 228 227 225 228 234 237 245 251 239 243 295 313 355 29 25 13 4 21 25 14 11 9 6 13 10 0 351 345 343 349 359 3 360 358
22 33 173 195 201 202 201 197 190 186 186 184 180 174 172 172 169 169 170 168 168 175 187 193 193 190 187 188 192 195 197 201 206 211 215 217 218 219 220 220 219 217 213 212 218 220 215 204 197 200 202 208 224 232 230 223 218 224 229 227 238 244 228 239 281 296 330 31 34 17 10 29 20 14 16 13 2 2 3 359 348 341 343 355 9 7 359 358
17 30 136 191 197 194 194 195 191 188 188 189 186 179 177 179 172 167 170 169 168 174 182 191 195 193 188 185 190 194 195 196 199 205 211 215 218 220 221 221 220 219 216 214 217 222 221 210 202 203 197 201 217 225 226 222 219 228 232 231 256 253 234 234 258 277 305 41 44 15 13 4 358 3 5 1 355 356 358 356 348 342 345 3 16 8 359 358
358 12 67 173 189 188 191 196 197 195 193 192 189 182 181 185 178 168 165 163 166 169 171 182 193 196 193 188 188 192 192 192 194 199 205 210 215 219 222 224 223 221 219 217 216 218 219 212 208 206 196 200 212 216 219 222 225 232 236 240 247 245 237 238 251 266 290 12 13 328 355 354 350 352 348 346 349 356 358 356 350 342 344 2 10 2 356 355
330 345 12 166 186 188 191 198 202 202 198 193 191 187 185 185 180 174 168 162 166 170 171 178 188 195 198 195 192 191 189 187 188 194 201 203 206 211 216 221 223 222 221 220 218 218 216 211 210 208 199 202 210 212 215 221 227 233 237 239 239 233 232 244 264 271 281 342 317 287 314 333 347 347 340 338 343 350 351 349 346 339 336 346 353 351 350 351
325 334 339 257 195 190 195 203 208 207 201 194 194 193 187 180 174 176 177 173 172 174 176 181 186 189 192 190 187 185 185 183 182 186 189 190 197 204 207 212 217 219 222 222 221 219 216 213 212 209 203 205 208 209 212 218 227 233 233 233 233 226 222 229 250 264 263 277 297 291 288 303 334 344 341 341 344 347 344 339 335 330 328 334 341 343 345 349
320 315 313 286 221 200 201 208 214 214 207 200 200 198 191 182 173 175 185 187 186 185 184 185 186 184 181 174 168 168 174 179 180 177 172 176 188 196 203 208 208 209 213 216 217 217 215 214 214 211 208 206 206 206 209 214 221 227 229 232 232 225 222 225 237 256 261 265 284 285 276 282 314 333 336 339 342 345 344 341 336 327 323 331 342 344 343 348
284 257 254 261 243 222 211 210 215 219 215 210 209 205 195 188 185 184 192 199 200 198 193 187 183 179 171 162 158 160 165 170 175 173 170 176 185 191 199 205 204 202 203 206 211 214 214 212 212 212 210 207 205 205 206 209 215 221 224 229 229 224 225 226 230 243 254 258 270 276 273 277 296 312 320 326 330 334 339 343 342 332 321 327 343 345 342 348
266 249 233 234 223 215 208 198 206 217 220 217 217 214 202 192 194 197 200 207 211 208 202 193 184 176 164 159 161 163 163 164 167 169 173 181 186 187 191 195 199 203 201 200 202 206 209 209 208 209 209 206 205 205 205 208 215 218 216 218 221 221 223 226 227 235 248 255 262 271 277 284 292 297 307 316 318 322 331 337 338 334 322 322 337 340 341 348
258 249 228 225 211 174 162 179 194 208 216 218 219 219 212 199 197 204 209 211 216 217 213 204 191 178 167 166 166 167 167 166 165 168 176 182 183 182 184 188 196 201 200 199 198 196 200 204 204 206 206 204 203 204 205 209 214 214 212 214 216 217 222 226 228 229 236 245 255 266 280 292 291 296 310 312 310 319 329 332 333 331 321 316 327 334 340 348
247 244 231 224 214 186 168 172 187 200 210 216 221 222 220 207 199 206 220 222 219 223 224 216 202 188 177 175 176 178 178 173 170 174 178 180 179 178 178 184 194 194 193 197 196 193 197 199 199 202 204 202 202 203 205 210 212 208 208 213 214 216 221 225 228 230 231 236 246 260 276 290 291 300 310 306 308 322 328 329 331 327 317 314 321 328 339 346
241 241 235 226 218 203 184 174 180 197 208 216 224 225 222 215 207 212 228 235 224 221 226 221 212 202 191 184 185 191 191 182 179 182 181 177 178 176 175 183 193 190 189 193 192 192 195 197 197 201 202 201 202 204 207 211 211 207 209 214 216 220 224 226 230 235 237 238 243 255 269 279 285 296 303 301 308 321 323 326 333 327 317 318 323 330 340 343
240 238 235 229 222 213 200 189 183 189 199 210 222 227 223 218 216 219 230 240 233 221 220 220 215 209 200 193 192 195 197 193 189 190 188 182 178 178 180 185 185 183 188 190 190 191 193 196 199 200 201 201 202 206 209 211 211 211 214 219 221 224 227 230 233 237 240 241 243 252 265 272 278 289 298 301 307 314 315 326 336 334 335 340 333 333 338 337
241 238 235 231 226 219 212 206 197 189 188 195 210 221 222 215 216 222 230 239 237 224 218 217 216 212 205 199 197 198 201 202 197 195 198 194 184 181 187 191 182 185 192 191 190 193 195 198 200 198 198 200 203 207 210 209 210 212 218 223 227 230 230 233 236 238 241 242 242 249 260 265 272 283 292 296 301 307 311 319 328 332 342 346 340 337 338 338
241 240 237 235 232 226 219 216 213 206 197 193 197 209 217 215 217 224 230 235 237 229 222 219 216 215 212 205 202 204 207 207 204 202 207 211 203 192 194 198 193 195 201 199 198 199 200 204 202 198 199 201 203 207 207 206 208 212 216 223 230 234 233 233 236 237 240 243 243 243 248 255 265 276 285 291 298 306 308 310 314 318 325 333 336 338 341 341
240 240 239 237 235 231 225 221 221 221 216 210 205 207 214 216 219 226 229 231 236 234 229 225 220 217 217 212 206 209 214 215 213 211 215 222 219 209 207 208 205 207 208 205 205 206 207 215 213 205 206 207 206 207 206 206 210 215 217 222 228 232 234 236 240 242 242 243 243 238 240 250 262 272 281 289 295 301 305 309 315 318 318 320 324 327 330 332
238 239 239 239 237 234 230 225 225 226 226 224 221 218 218 217 220 227 229 229 236 240 237 233 227 222 221 217 211 211 216 218 218 219 223 230 226 218 217 216 212 214 216 209 208 211 211 220 228 222 220 218 213 210 209 209 214 217 218 222 226 229 233 239 245 250 247 242 240 239 242 252 262 272 279 285 290 296 304 310 315 318 319 319 321 321 321 324
237 238 238 239 238 236 233 230 228 229 228 227 226 224 224 222 218 224 229 229 235 243 244 240 232 226 224 222 218 215 216 217 218 221 225 230 229 224 223 223 217 218 223 220 219 223 222 226 232 230 231 232 224 217 214 212 213 215 218 224 227 228 233 239 245 250 248 240 237 241 246 252 260 268 274 279 286 292 300 307 311 317 323 325 327 325 321 325
238 237 238 238 239 238 237 235 232 231 229 227 226 225 227 229 223 222 230 232 232 238 242 241 236 231 228 226 224 221 219 220 220 220 220 223 227 228 227 227 224 223 228 228 228 233 236 240 243 237 235 238 233 226 221 216 212 213 218 223 225 227 232 238 242 245 245 242 241 244 246 249 256 264 269 275 281 285 294 302 307 312 319 326 330 329 328 333
Height
5882 5884 5885 5885 5886 5887 5888 5889 5890 5891 5891 5893 5894 5894 5895 5895 5896 5897 5897 5898 5899 5899 5900 5900 5901 5902 5902 5903 5904 5905 5904 5905 5906 5907 5908 5909 5910 5910 5910 5910 5910 5910 5909 5910 5910 5911 5910 5909 5908 5906 5905 5903 5901 5900 5899 5897 5896 5895 5894 5893 5891 5891 5891 5891 5891 5890 5890 5890 5891 5892 5892 5893 5893 5894 5895 5896 5896 5897 5898 5897 5897 5898 5898 5899 5900 5901 5901 5902
5880 5882 5883 5884 5885 5886 5887 5888 5889 5890 5891 5892 5893 5894 5894 5895 5896 5897 5897 5898 5899 5899 5900 5900 5901 5902 5903 5904 5905 5905 5905 5906 5907 5908 5909 5910 5911 5911 5911 5911 5911 5910 5911 5911 5911 5911 5911 5910 5909 5908 5906 5904 5903 5901 5900 5898 5897 5896 5896 5894 5893 5893 5893 5893 5892 5892 5892 5892 5892 5893 5894 5894 5895 5895 5895 5896 5896 5897 5898 5898 5898 5899 5899 5900 5900 5901 5902 5902
5879 5880 5881 5882 5884 5885 5886 5887 5888 5889 5890 5891 5892 5893 5894 5895 5895 5896 5897 5898 5899 5899 5900 5900 5901 5902 5903 5904 5905 5906 5906 5907 5907 5908 5909 5911 5912 5912 5911 5911 5911 5911 5912 5912 5912 5912 5912 5911 5910 5909 5907 5905 5904 5902 5901 5899 5898 5897 5897 5896 5895 5895 5895 5895 5894 5894 5894 5894 5894 5894 5895 5896 5896 5896 5896 5896 5897 5898 5899 5899 5898 5899 5900 5900 5901 5901 5902 5902
5877 5878 5879 5880 5882 5883 5884 5885 5886 5887 5888 5889 5891 5892 5893 5894 5895 5895 5897 5898 5899 5899 5900 5900 5901 5902 5903 5904 5905 5906 5907 5907 5908 5908 5909 5911 5912 5912 5911 5911 5912 5912 5912 5912 5913 5913 5913 5912 5912 5910 5909 5907 5905 5903 5902 5901 5899 5898 5898 5897 5897 5897 5897 5897 5896 5896 5896 5896 5896 5896 5896 5897 5897 5897 5897 5897 5898 5899 5899 5900 5899 5899 5900 5900 5901 5901 5902 5902
5875 5876 5877 5878 5880 5881 5882 5884 5885 5886 5887 5888 5889 5891 5892 5893 5894 5895 5896 5897 5898 5899 5899 5900 5901 5902 5903 5904 5905 5906 5907 5908 5908 5909 5910 5911 5912 5912 5912 5912 5912 5913 5913 5913 5913 5913 5913 5913 5913 5911 5910 5908 5906 5905 5903 5902 5901 5900 5899 5899 5899 5899 5899 5899 5898 5898 5898 5898 5898 5898 5897 5897 5897 5898 5898 5898 5899 5900 5900 5900 5900 5900 5900 5901 5901 5901 5902 5902
5873 5874 5875 5877 5878 5879 5880 5882 5883 5884 5885 5887 5888 5889 5891 5892 5893 5894 5895 5896 5897 5898 5899 5900 5901 5902 5902 5904 5905 5906 5907 5908 5909 5910 5910 5911 5912 5912 5912 5912 5913 5913 5913 5913 5914 5914 5914 5914 5913 5912 5911 5910 5908 5906 5905 5903 5903 5901 5901 5901 5901 5901 5900 5900 5900 5899 5899 5899 5899 5899 5898 5898 5898 5898 5899 5899 5899 5900 5900 5901 5901 5901 5901 5902 5902 5902 5902 5902
5871 5872 5874 5875 5876 5877 5878 5880 5881 5882 5884 5885 5886 5888 5889 5890 5892 5893 5894 5895 5896 5897 5899 5900 5900 5901 5902 5903 5905 5906 5906 5908 5909 5910 5910 5911 5912 5912 5912 5913 5913 5913 5914 5913 5914 5914 5914 5914 5913 5913 5913 5911 5909 5908 5906 5905 5904 5903 5902 5903 5903 5902 5902 5902 5901 5901 5900 5900 5900 5899 5899 5899 5899 5899 5899 5900 5900 5900 5900 5901 5901 5901 5902 5902 5903 5903 5903 5902
5870 5871 5872 5873 5874 5875 5876 5878 5879 5880 5882 5883 5885 5886 5888 5889 5890 5892 5893 5895 5896 5897 5898 5899 5900 5901 5902 5903 5904 5905 5906 5907 5909 5910 5911 5911 5912 5913 5913 5913 5913 5914 5914 5914 5914 5915 5915 5914 5913 5914 5914 5913 5911 5910 5909 5907 5906 5905 5904 5905 5905 5905 5904 5903 5903 5902 5902 5901 5901 5900 5900 5900 5900 5900 5900 5900 5900 5900 5901 5901 5901 5901 5902 5902 5902 5903 5903 5903
5868 5869 5870 5871 5872 5873 5874 5876 5877 5878 5880 5881 5883 5885 5886 5887 5889 5890 5892 5893 5895 5896 5897 5898 5900 5901 5901 5902 5904 5905 5905 5907 5909 5910 5911 5911 5912 5913 5913 5914 5914 5914 5914 5914 5914 5915 5916 5915 5914 5914 5914 5914 5913 5912 5911 5909 5908 5907 5906 5907 5907 5907 5906 5905 5905 5904 5903 5903 5902 5901 5900 5900 5900 5900 5900 5901 5901 5901 5901 5901 5901 5902 5902 5902 5902 5902 5902 5902
5866 5868 5869 5870 5870 5871 5872 5874 5875 5876 5878 5879 5881 5883 5884 5885 5887 5889 5890 5892 5893 5895 5896 5897 5899 5900 5901 5902 5903 5904 5905 5907 5909 5910 5911 5911 5912 5913 5913 5914 5914 5914 5914 5914 5915 5916 5916 5916 5915 5915 5915 5914 5914 5913 5913 5912 5910 5909 5909 5909 5908 5908 5908 5907 5906 5906 5905 5904 5904 5902 5901 5900 5900 5900 5900 5901 5901 5901 5902 5901 5901 5901 5901 5901 5901 5901 5901 5901
5865 5866 5867 5868 5869 5870 5870 5872 5873 5874 5875 5877 5879 5881 5882 5884 5885 5887 5889 5890 5892 5893 5895 5896 5898 5899 5900 5901 5902 5904 5905 5906 5909 5910 5911 5912 5912 5913 5913 5914 5914 5915 5915 5915 5916 5917 5917 5918 5916 5916 5916 5915 5915 5915 5914 5914 5913 5911 5911 5911 5910 5910 5909 5908 5908 5907 5906 5906 5905 5904 5902 5901 5900 5900 5900 5901 5901 5902 5902 5901 5901 5901 5900 5900 5900 5900 5900 5900
5864 5865 5865 5866 5867 5868 5869 5870 5871 5872 5873 5875 5877 5878 5880 5882 5883 5884 5886 5889 5891 5892 5894 5895 5896 5898 5899 5901 5901 5903 5905 5906 5908 5910 5911 5912 5912 5913 5913 5913 5914 5915 5915 5916 5917 5917 5918 5918 5917 5917 5917 5916 5915 5916 5915 5915 5915 5913 5913 5912 5912 5911 5910 5910 5909 5908 5908 5907 5906 5905 5903 5902 5901 5900 5901 5901 5901 5901 5901 5901 5901 5900 5900 5899 5899 5899 5899 5899
5862 5863 5864 5865 5866 5867 5867 5868 5869 5870 5871 5873 5874 5876 5878 5879 5881 5882 5884 5886 5889 5891 5892 5894 5895 5897 5898 5900 5901 5902 5904 5905 5907 5909 5910 5911 5912 5913 5913 5913 5914 5914 5915 5916 5917 5918 5918 5918 5918 5918 5918 5917 5916 5916 5916 5916 5916 5915 5914 5914 5913 5912 5912 5911 5910 5910 5909 5908 5907 5905 5904 5903 5902 5902 5901 5901 5901 5901 5901 5900 5900 5900 5899 5899 5899 5899 5898 5898
5861 5862 5863 5864 5865 5865 5866 5866 5867 5868 5869 5871 5872 5874 5875 5877 5878 5880 5882 5884 5887 5889 5891 5892 5894 5895 5897 5899 5900 5901 5903 5904 5905 5907 5908 5909 5911 5912 5913 5913 5913 5914 5914 5915 5916 5917 5918 5918 5919 5919 5919 5918 5918 5917 5917 5916 5916 5915 5915 5915 5914 5913 5913 5912 5912 5911 5910 5909 5908 5906 5905 5904 5904 5903 5903 5903 5902 5902 5901 5900 5900 5899 5899 5899 5898 5898 5898 5898
5860 5861 5862 5863 5863 5864 5864 5865 5865 5866 5868 5869 5870 5871 5872 5874 5876 5878 5880 5882 5884 5887 5889 5891 5892 5894 5896 5898 5899 5900 5901 5903 5903 5905 5907 5908 5910 5911 5912 5913 5913 5914 5914 5914 5916 5917 5918 5919 5919 5919 5919 5918 5918 5918 5918 5917 5916 5916 5916 5916 5916 5915 5914 5913 5913 5912 5911 5910 5909 5908 5906 5905 5905 5904 5904 5904 5903 5902 5902 5901 5900 5900 5899 5899 5898 5898 5898 5898
5859 5860 5861 5861 5862 5863 5863 5864 5864 5865 5866 5867 5868 5869 5870 5871 5873 5876 5878 5880 5882 5884 5887 5889 5891 5892 5894 5896 5898 5898 5899 5900 5902 5904 5906 5907 5909 5910 5911 5912 5913 5913 5914 5914 5915 5916 5918 5919 5919 5919 5919 5919 5919 5919 5919 5918 5918 5917 5917 5917 5916 5916 5915 5914 5914 5913 5912 5911 5910 5909 5908 5906 5906 5905 5905 5905 5904 5903 5903 5902 5901 5901 5900 5900 5899 5899 5899 5898
5858 5859 5859 5860 5861 5862 5862 5862 5863 5863 5864 5865 5866 5867 5868 5869 5871 5873 5875 5877 5879 5882 5884 5887 5889 5891 5893 5895 5896 5896 5897 5899 5902 5903 5905 5906 5908 5909 5910 5911 5912 5913 5913 5914 5915 5916 5917 5918 5919 5919 5919 5920 5920 5920 5920 5920 5919 5918 5918 5917 5917 5916 5916 5915 5915 5914 5914 5913 5912 5910 5909 5908 5907 5906 5906 5906 5905 5904 5903 5903 5902 5902 5901 5901 5900 5900 5899 5898
5857 5857 5858 5859 5860 5860 5861 5861 5861 5862 5863 5863 5864 5865 5866 5867 5868 5870 5872 5874 5877 5879 5881 5884 5887 5889 5891 5892 5893 5895 5896 5899 5902 5903 5904 5906 5908 5908 5909 5911 5912 5913 5913 5914 5915 5916 5917 5917 5918 5919 5920 5920 5920 5920 5921 5920 5920 5919 5919 5918 5917 5917 5916 5916 5916 5915 5915 5914 5913 5912 5910 5909 5908 5908 5907 5907 5906 5905 5904 5904 5903 5902 5902 5901 5901 5900 5900 5899
5855 5856 5857 5857 5858 5859 5859 5859 5860 5860 5861 5862 5862 5862 5863 5864 5866 5867 5869 5871 5874 5876 5879 5882 5885 5887 5889 5891 5892 5894 5895 5898 5901 5902 5903 5905 5907 5908 5909 5910 5912 5913 5914 5915 5915 5916 5917 5917 5918 5919 5920 5921 5921 5921 5921 5921 5921 5920 5920 5919 5918 5918 5917 5917 5917 5916 5915 5915 5914 5913 5911 5910 5909 5909 5908 5908 5907 5906 5905 5905 5904 5903 5902 5902 5901 5901 5900 5899
5854 5854 5855 5856 5857 5858 5858 5858 5859 5859 5860 5860 5860 5860 5861 5862 5863 5864 5865 5868 5870 5873 5876 5879 5882 5884 5887 5889 5891 5893 5894 5896 5899 5901 5902 5904 5906 5907 5908 5910 5911 5912 5914 5915 5915 5916 5916 5917 5918 5919 5920 5920 5921 5921 5921 5921 5921 5921 5921 5920 5919 5918 5918 5917 5917 5917 5916 5915 5914 5914 5912 5911 5910 5910 5910 5909 5908 5907 5906 5906 5905 5904 5903 5903 5902 5901 5900 5900
5852 5853 5854 5855 5856 5856 5856 5857 5857 5858 5858 5858 5858 5858 5858 5859 5860 5861 5863 5865 5867 5870 5873 5876 5879 5882 5885 5888 5890 5891 5893 5895 5897 5900 5902 5903 5905 5906 5908 5909 5911 5912 5913 5914 5915 5916 5917 5918 5919 5919 5919 5920 5921 5921 5921 5922 5922 5921 5922 5921 5921 5919 5919 5919 5918 5918 5917 5916 5915 5914 5913 5912 5912 5911 5911 5910 5909 5908 5907 5906 5906 5905 5904 5904 5903 5902 5901 5900
5851 5851 5852 5854 5854 5854 5855 5856 5856 5856 5856 5856 5856 5856 5856 5856 5857 5858 5860 5863 5865 5868 5871 5874 5877 5880 5883 5886 5888 5890 5892 5893 5896 5899 5901 5903 5904 5906 5907 5909 5910 5911 5913 5914 5915 5916 5917 5918 5918 5918 5919 5920 5921 5922 5922 5922 5922 5922 5922 5922 5922 5920 5919 5920 5919 5919 5918 5917 5916 5915 5914 5913 5913 5912 5912 5911 5911 5909 5908 5907 5906 5906 5905 5904 5903 5902 5901 5900
5850 5850 5851 5852 5852 5853 5854 5855 5855 5855 5855 5855 5854 5853 5853 5853 5854 5855 5857 5860 5862 5865 5868 5872 5875 5878 5881 5884 5887 5888 5890 5891 5893 5897 5900 5902 5903 5905 5906 5908 5909 5910 5912 5914 5915 5916 5917 5918 5918 5918 5919 5920 5921 5922 5922 5922 5923 5923 5922 5922 5922 5921 5919 5920 5921 5920 5919 5918 5918 5917 5916 5915 5914 5914 5913 5912 5911 5910 5909 5908 5907 5907 5905 5905 5904 5903 5902 5901
5848 5849 5850 5850 5850 5852 5853 5854 5854 5854 5854 5853 5852 5852 5851 5851 5851 5853 5855 5857 5860 5863 5866 5869 5873 5876 5879 5882 5884 5886 5888 5889 5892 5894 5898 5900 5902 5904 5905 5906 5908 5909 5911 5913 5914 5915 5916 5917 5918 5919 5919 5920 5921 5922 5922 5923 5923 5923 5923 5923 5923 5921 5919 5921 5922 5921 5920 5919 5918 5918 5917 5916 5915 5915 5914 5913 5912 5911 5910 5909 5908 5907 5906 5905 5904 5903 5902 5901
5847 5847 5848 5848 5849 5851 5852 5853 5853 5853 5852 5852 5851 5850 5849 5849 5850 5851 5853 5855 5857 5860 5864 5867 5871 5874 5877 5880 5882 5884 5887 5889 5890 5893 5895 5898 5900 5902 5903 5905 5907 5909 5910 5912 5913 5914 5915 5916 5918 5919 5919 5920 5921 5921 5922 5923 5923 5923 5923 5923 5923 5921 5920 5922 5922 5921 5921 5920 5919 5918 5917 5917 5916 5915 5915 5914 5913 5912 5911 5910 5909 5908 5907 5905 5905 5904 5903 5902
5846 5846 5846 5847 5849 5850 5851 5852 5852 5852 5851 5851 5850 5849 5848 5848 5848 5849 5851 5853 5855 5858 5862 5865 5868 5872 5875 5877 5880 5883 5886 5887 5889 5891 5893 5896 5898 5900 5902 5904 5906 5908 5909 5911 5912 5913 5914 5915 5917 5918 5919 5920 5920 5921 5922 5922 5923 5923 5923 5923 5923 5921 5921 5922 5923 5922 5921 5920 5919 5919 5918 5918 5917 5916 5916 5914 5913 5912 5912 5911 5909 5908 5907 5906 5905 5904 5903 5902
5845 5845 5845 5846 5848 5849 5850 5851 5851 5851 5850 5850 5849 5848 5847 5847 5847 5848 5849 5852 5854 5857 5860 5863 5867 5870 5872 5875 5878 5881 5883 5885 5887 5889 5892 5894 5897 5899 5901 5903 5905 5906 5908 5909 5911 5912 5913 5915 5916 5917 5919 5919 5919 5920 5921 5922 5923 5923 5922 5923 5923 5922 5921 5923 5923 5922 5922 5921 5920 5919 5919 5918 5917 5917 5917 5915 5914 5913 5913 5912 5910 5908 5907 5905 5905 5904 5902 5901
5844 5844 5844 5845 5847 5849 5849 5850 5850 5850 5850 5849 5848 5847 5847 5846 5847 5847 5849 5851 5853 5856 5859 5862 5865 5867 5870 5873 5876 5878 5881 5883 5885 5887 5890 5893 5896 5898 5900 5902 5904 5905 5907 5908 5910 5911 5913 5914 5915 5917 5918 5918 5919 5920 5921 5921 5922 5922 5922 5922 5923 5922 5922 5923 5923 5923 5922 5922 5921 5920 5920 5919 5918 5917 5917 5916 5915 5914 5913 5912 5911 5909 5907 5906 5905 5904 5903 5902
5843 5843 5843 5845 5847 5848 5848 5849 5849 5849 5849 5848 5848 5847 5847 5846 5847 5847 5848 5850 5852 5854 5857 5860 5863 5865 5868 5871 5873 5876 5878 5881 5883 5885 5888 5891 5894 5897 5899 5900 5902 5904 5906 5907 5909 5910 5912 5913 5915 5916 5917 5918 5919 5920 5920 5921 5921 5921 5922 5922 5922 5923 5922 5922 5923 5923 5923 5922 5921 5921 5921 5920 5919 5919 5918 5916 5915 5914 5914 5913 5912 5911 5908 5906 5905 5904 5903 5902
5843 5843 5843 5845 5846 5847 5848 5848 5848 5848 5848 5848 5847 5847 5847 5847 5847 5847 5848 5850 5851 5853 5856 5858 5861 5864 5866 5869 5871 5874 5877 5879 5882 5884 5887 5890 5893 5895 5897 5898 5900 5903 5906 5907 5908 5909 5911 5912 5914 5915 5916 5917 5918 5919 5920 5920 5920 5920 5921 5921 5922 5923 5922 5922 5923 5923 5923 5923 5922 5921 5921 5921 5921 5920 5918 5917 5915 5914 5914 5914 5913 5912 5909 5907 5906 5905 5904 5903
5844 5844 5844 5845 5846 5847 5847 5848 5848 5848 5848 5847 5847 5847 5847 5847 5847 5848 5849 5850 5851 5853 5855 5857 5859 5862 5865 5867 5870 5873 5876 5878 5881 5883 5886 5889 5891 5894 5896 5898 5900 5903 5905 5906 5907 5908 5910 5912 5913 5915 5915 5916 5917 5918 5919 5920 5920 5920 5921 5921 5922 5923 5923 5923 5923 5923 5923 5923 5922 5921 5921 5921 5921 5920 5918 5917 5916 5915 5914 5914 5914 5913 5910 5908 5907 5906 5905 5903
5845 5845 5845 5846 5846 5846 5847 5847 5847 5847 5847 5847 5847 5847 5847 5848 5848 5849 5849 5850 5852 5853 5855 5856 5858 5861 5864 5867 5869 5872 5874 5877 5879 5882 5885 5888 5890 5893 5895 5897 5899 5902 5904 5905 5906 5907 5909 5911 5913 5914 5915 5915 5916 5918 5919 5920 5920 5920 5921 5921 5922 5922 5923 5923 5923 5923 5923 5922 5921 5921 5921 5921 5921 5920 5918 5917 5916 5915 5915 5914 5914 5913 5911 5909 5907 5906 5905 5904
5846 5846 5846 5846 5846 5846 5847 5847 5847 5847 5847 5847 5847 5847 5847 5848 5850 5850 5851 5852 5853 5854 5855 5856 5858 5861 5863 5866 5868 5871 5873 5875 5878 5881 5883 5886 5889 5891 5893 5895 5898 5900 5903 5904 5905 5906 5909 5911 5912 5913 5914 5914 5915 5917 5918 5919 5920 5921 5921 5921 5922 5922 5923 5923 5923 5923 5923 5922 5921 5921 5921 5921 5921 5920 5918 5917 5917 5916 5915 5915 5914 5913 5911 5909 5908 5906 5905 5904
5846 5846 5846 5846 5846 5846 5846 5846 5846 5846 5846 5846 5847 5848 5848 5849 5851 5852 5852 5853 5854 5855 5856 5857 5859 5861 5863 5865 5867 5870 5872 5874 5876 5879 5881 5884 5886 5889 5891 5893 5896 5899 5901 5902 5903 5905 5907 5909 5911 5912 5913 5914 5914 5916 5917 5918 5919 5920 5920 5921 5921 5922 5922 5923 5923 5922 5922 5922 5922 5921 5921 5921 5921 5920 5919 5918 5917 5916 5915 5915 5914 5913 5912 5910 5908 5907 5905 5904
5846 5846 5846 5846 5846 5846 5846 5846 5846 5846 5846 5846 5847 5848 5849 5850 5851 5853 5854 5854 5855 5856 5857 5858 5860 5861 5863 5864 5866 5868 5871 5873 5875 5877 5880 5882 5884 5887 5889 5892 5894 5897 5899 5901 5902 5903 5906 5908 5910 5910 5912 5913 5914 5914 5915 5917 5918 5918 5919 5920 5921 5921 5922 5922 5922 5922 5922 5922 5922 5922 5922 5921 5921 5920 5919 5918 5917 5917 5916 5915 5914 5913 5912 5910 5909 5907 5905 5903
5846 5846 5845 5845 5845 5845 5846 5846 5845 5845 5845 5846 5847 5849 5850 5851 5852 5853 5854 5855 5856 5857 5857 5859 5860 5861 5862 5864 5866 5868 5870 5872 5874 5876 5878 5880 5882 5884 5887 5889 5892 5894 5897 5900 5901 5902 5905 5907 5909 5909 5911 5912 5912 5913 5913 5915 5917 5917 5918 5919 5920 5920 5921 5921 5921 5922 5922 5922 5922 5922 5922 5921 5921 5920 5920 5919 5918 5917 5916 5915 5914 5913 5911 5910 5909 5907 5905 5903
5846 5846 5845 5845 5845 5845 5845 5845 5845 5845 5845 5847 5848 5850 5851 5852 5853 5854 5855 5856 5857 5857 5858 5859 5860 5861 5862 5863 5865 5867 5869 5871 5873 5875 5877 5879 5881 5883 5885 5887 5890 5892 5895 5897 5899 5900 5903 5906 5907 5908 5909 5910 5910 5911 5912 5913 5914 5915 5917 5918 5918 5919 5919 5920 5920 5921 5922 5922 5922 5921 5921 5921 5921 5920 5919 5918 5917 5917 5916 5915 5913 5912 5911 5910 5909 5907 5905 5903
5846 5846 5846 5845 5845 5845 5845 5845 5845 5845 5846 5847 5849 5850 5851 5853 5854 5855 5856 5857 5857 5858 5858 5859 5860 5861 5862 5863 5864 5866 5868 5870 5872 5873 5875 5877 5879 5881 5883 5885 5887 5890 5892 5894 5896 5898 5900 5903 5904 5906 5908 5908 5908 5910 5911 5912 5912 5913 5915 5917 5917 5917 5918 5919 5920 5921 5921 5921 5921 5921 5921 5920 5920 5920 5919 5918 5917 5917 5916 5915 5914 5912 5911 5910 5909 5907 5905 5903
5846 5846 5846 5846 5846 5845 5845 5845 5846 5846 5847 5848 5850 5851 5852 5853 5855 5856 5857 5857 5858 5858 5858 5859 5860 5861 5862 5863 5865 5866 5867 5869 5870 5872 5874 5876 5878 5879 5881 5883 5885 5887 5889 5891 5893 5896 5898 5900 5901 5904 5905 5906 5907 5909 5910 5910 5911 5912 5914 5914 5915 5916 5917 5918 5919 5920 5921 5921 5920 5920 5920 5920 5920 5919 5918 5918 5917 5917 5916 5915 5914 5913 5911 5910 5909 5907 5905 5903
5846 5846 5846 5846 5846 5846 5846 5846 5847 5847 5848 5849 5850 5851 5853 5854 5855 5856 5857 5858 5858 5858 5859 5860 5861 5862 5863 5864 5865 5866 5867 5868 5870 5871 5873 5874 5876 5877 5879 5880 5882 5884 5886 5888 5890 5892 5895 5897 5899 5901 5903 5904 5906 5907 5908 5909 5910 5911 5912 5913 5914 5915 5916 5917 5918 5919 5919 5920 5920 5920 5920 5919 5919 5919 5918 5917 5917 5916 5916 5915 5914 5913 5911 5910 5909 5907 5905 5903
5846 5846 5846 5846 5846 5846 5847 5847 5848 5849 5849 5849 5850 5852 5853 5854 5855 5856 5857 5858 5859 5859 5859 5860 5861 5862 5864 5865 5866 5867 5867 5868 5869 5870 5871 5872 5874 5875 5876 5878 5879 5881 5883 5885 5888 5890 5893 5895 5897 5898 5900 5902 5904 5905 5906 5908 5909 5910 5911 5912 5913 5914 5914 5915 5917 5917 5918 5919 5919 5919 5919 5919 5919 5918 5918 5917 5916 5916 5915 5915 5914 5912 5911 5910 5909 5907 5905 5903
5845 5845 5846 5846 5846 5847 5847 5848 5848 5849 5849 5850 5850 5852 5853 5854 5855 5856 5857 5858 5859 5860 5860 5861 5861 5863 5864 5865 5866 5867 5867 5868 5869 5870 5871 5871 5872 5874 5875 5877 5878 5880 5882 5884 5886 5888 5891 5893 5894 5896 5898 5900 5902 5903 5905 5907 5908 5909 5910 5911 5911 5912 5912 5913 5915 5916 5916 5917 5918 5918 5918 5918 5918 5917 5917 5916 5915 5915 5914 5914 5913 5912 5910 5909 5908 5906 5904 5902
5844 5845 5845 5846 5846 5847 5847 5848 5849 5849 5850 5850 5851 5852 5853 5855 5855 5856 5857 5858 5859 5859 5860 5861 5862 5863 5865 5865 5866 5867 5867 5868 5869 5870 5870 5871 5872 5874 5875 5876 5878 5880 5881 5882 5884 5886 5888 5890 5892 5894 5896 5898 5900 5901 5903 5905 5906 5907 5908 5909 5909 5910 5911 5912 5913 5914 5914 5915 5916 5917 5917 5917 5917 5916 5916 5916 5915 5914 5914 5913 5912 5910 5909 5908 5907 5906 5904 5902
5843 5844 5845 5845 5846 5847 5847 5848 5848 5849 5849 5850 5850 5851 5852 5854 5855 5855 5856 5857 5858 5859 5860 5861 5862 5863 5865 5866 5866 5867 5867 5868 5869 5869 5870 5871 5873 5874 5875 5876 5877 5879 5881 5882 5883 5885 5886 5889 5891 5892 5894 5896 5898 5900 5902 5903 5904 5905 5906 5907 5907 5908 5909 5910 5911 5911 5912 5913 5915 5915 5916 5916 5916 5916 5915 5915 5914 5914 5913 5912 5911 5909 5908 5907 5907 5905 5904 5902
5842 5843 5844 5845 5845 5846 5847 5847 5848 5848 5849 5849 5850 5851 5852 5853 5854 5855 5855 5855 5856 5858 5859 5860 5862 5863 5864 5865 5866 5867 5868 5869 5869 5870 5870 5872 5873 5874 5875 5876 5877 5879 5880 5881 5882 5884 5886 5888 5889 5890 5892 5895 5897 5899 5900 5901 5902 5904 5905 5905 5906 5907 5908 5909 5910 5910 5911 5912 5913 5914 5915 5916 5915 5915 5915 5914 5914 5913 5912 5911 5910 5908 5907 5907 5906 5905 5903 5902
5841 5842 5843 5844 5845 5845 5846 5847 5847 5847 5848 5849 5849 5850 5851 5852 5853 5854 5854 5854 5855 5856 5858 5859 5861 5862 5864 5865 5866 5867 5868 5869 5869 5870 5871 5872 5873 5874 5875 5876 5877 5879 5880 5881 5882 5883 5884 5886 5887 5889 5891 5893 5895 5897 5898 5899 5901 5902 5904 5904 5905 5906 5907 5907 5908 5909 5910 5911 5912 5913 5914 5914 5914 5914 5914 5914 5913 5913 5912 5910 5909 5908 5907 5906 5905 5904 5903 5902
5839 5841 5842 5843 5844 5844 5845 5846 5846 5847 5847 5848 5848 5849 5850 5851 5852 5853 5853 5853 5854 5855 5857 5858 5860 5862 5863 5864 5865 5866 5868 5868 5869 5870 5871 5872 5873 5874 5875 5876 5877 5878 5879 5880 5881 5882 5883 5885 5886 5888 5890 5892 5893 5895 5897 5898 5900 5901 5903 5903 5904 5904 5905 5906 5907 5908 5908 5909 5911 5912 5913 5913 5913 5913 5913 5913 5912 5912 5911 5910 5909 5908 5907 5906 5905 5904 5902 5901
5837 5839 5840 5841 5842 5843 5844 5845 5846 5846 5847 5847 5847 5848 5849 5850 5851 5851 5852 5853 5853 5854 5856 5858 5860 5861 5863 5864 5865 5866 5867 5868 5869 5870 5870 5871 5872 5874 5874 5875 5876 5878 5879 5880 5881 5882 5883 5884 5885 5887 5889 5890 5891 5893 5895 5897 5898 5900 5901 5902 5902 5903 5903 5904 5905 5906 5906 5907 5909 5911 5911 5911 5912 5911 5911 5911 5911 5911 5910 5909 5909 5908 5906 5905 5904 5903 5902 5901
5836 5837 5838 5840 5841 5842 5843 5844 5844 5845 5846 5846 5847 5847 5847 5848 5849 5850 5851 5851 5852 5853 5854 5856 5858 5860 5862 5863 5865 5866 5866 5867 5868 5869 5870 5871 5872 5873 5874 5875 5876 5877 5878 5880 5881 5882 5883 5884 5885 5886 5887 5888 5890 5891 5893 5895 5897 5898 5900 5900 5901 5901 5902 5903 5903 5904 5905 5906 5907 5909 5909 5909 5910 5910 5910 5910 5909 5909 5909 5908 5907 5907 5906 5904 5903 5902 5901 5900
5834 5834 5836 5837 5839 5840 5841 5842 5843 5843 5844 5845 5846 5846 5846 5847 5848 5849 5850 5850 5850 5851 5852 5854 5857 5859 5861 5862 5864 5865 5865 5866 5867 5868 5869 5870 5871 5872 5873 5873 5874 5876 5877 5879 5880 5881 5882 5883 5884 5885 5886 5887 5888 5890 5891 5893 5895 5896 5898 5898 5899 5899 5900 5901 5902 5902 5903 5904 5905 5906 5907 5908 5909 5908 5909 5908 5908 5908 5907 5907 5906 5905 5904 5903 5902 5901 5900 5899
5831 5832 5834 5835 5836 5838 5839 5840 5841 5842 5843 5844 5844 5845 5845 5846 5847 5848 5848 5848 5849 5849 5850 5852 5855 5857 5859 5860 5862 5863 5864 5865 5866 5867 5868 5869 5870 5871 5871 5872 5874 5875 5876 5878 5879 5880 5881 5883 5884 5885 5886 5886 5887 5888 5890 5891 5893 5895 5896 5896 5897 5898 5898 5899 5900 5901 5902 5903 5904 5905 5906 5907 5907 5907 5907 5907 5906 5906 5906 5905 5904 5903 5902 5901 5900 5899 5898 5897
5829 5830 5831 5833 5834 5835 5837 5838 5839 5840 5841 5842 5843 5843 5844 5845 5846 5846 5846 5847 5847 5847 5848 5850 5852 5854 5856 5858 5860 5861 5862 5864 5865 5866 5867 5868 5868 5869 5870 5872 5873 5874 5875 5876 5878 5879 5880 5881 5882 5883 5884 5884 5885 5886 5888 5889 5891 5893 5893 5894 5895 5896 5896 5897 5898 5899 5900 5901 5902 5903 5904 5904 5905 5905 5905 5905 5905 5904 5904 5903 5902 5901 5901 5900 5899 5898 5897 5896